User: anonymous
Location: Nantong Television Tower
(32.0188°N, 120.8512°E)
Time: 00:25:04
(UTC+08:00)
Language:

ATLAS 3B CENTAUR R/B - Orbit

View from above orbital plane
View from above orbital plane
View from above satellite
View from above satellite

Ground track
Ground track

The orbit data is extracted from the following two-line orbital elements,

1 28118U 03057B   14105.88153709  .00070013  00000-0  14666-2 0  4763
2 28118 028.1740 238.9826 3952120 277.1243 314.7861 07.61324211190827
Epoch (UTC): 15 April 2014 21:09:24
Eccentricity: 0.3952120
inclination: 28.1740°
perigee height: 223 km
apogee height: 8850 km
right ascension of ascending node: 238.9826°
argument of perigee: 277.1243°
revolutions per day: 7.61324211
mean anomaly at epoch: 314.7861°
orbit number at epoch: 19082

The dashed part of the orbit path shows where the satellite is in the earth's shadow,  

DLR